Regional Weather Roundup
Issued by NWS

Home | Current Version | Previous Version | Graphics & Text | Print | Product List | Glossary Off
Versions: 1 2 3 4 5 6 7 8 9 10 11 12 13 14 15 16 17 18 19 20 21 22 23 24 25 26 27

000
ASUS43 KDMX 161707
RWRIA

WEATHER ROUNDUP FOR IOWA
NATIONAL WEATHER SERVICE DES MOINES IA
1200 PM CDT WED APR 16 2014

NOTE: "FAIR" INDICATES FEW OR NO CLOUDS BELOW 12,000 FEET WITH NO
SIGNIFICANT WEATHER AND/OR OBSTRUCTIONS TO VISIBILITY.

* - THESE STATIONS ARE NOT NWS STATIONS...THUS NOT UNDER NWS
QUALITY CONTROL.  THEY ALSO DO NOT REPORT WEATHER SUCH
AS PRECIPITATION OR FOG.

IAZ001>003-012>014-020>022-031>034-043>046-161800-
   NORTHWEST IOWA

CITY           SKY/WX    TMP DP  RH WIND       PRES   REMARKS
CARROLL *      CLOUDY    57  30  35 S32G51    29.75R
CHEROKEE *     CLOUDY    52  32  46 S17       29.71F
DENISON *      CLOUDY    54  28  37 S31G44    29.71S
LE MARS *      CLOUDY    54  28  37 S20G29    29.67F
ORANGE CITY *  CLOUDY    52  27  37 S23G29    29.67F
SHELDON *      CLOUDY    50  28  43 S23G31    29.67S
SIOUX CITY     CLOUDY    56  27  32 S24G32    29.69R
SPENCER        CLOUDY    52  31  44 S25G35    29.72F
STORM LAKE *   CLOUDY    50  30  46 S24G32    29.73R
$$

IAZ055>058-069>071-079>083-090>094-161800-
   SOUTHWEST IOWA

CITY           SKY/WX    TMP DP  RH WIND       PRES   REMARKS
ATLANTIC *     CLOUDY    57  28  33 S33G47    29.76R
AUDUBON *      CLOUDY    59  18  20 S29G44    29.76S
CLARINDA *     CLOUDY    57  30  35 S31G43    29.81S
COUNCIL BLFS * CLOUDY    55  30  38 S32G41    29.69F
CRESTON *      MOSUNNY   59  30  33 S35G47    29.81F
HARLAN  *      CLOUDY    55  30  38 S30G40    29.76F
LAMONI         SUNNY     57  28  33 S28G38    29.88F
RED OAK *      CLOUDY    55  32  41 S32G44    29.78S
SHENANDOAH *   CLOUDY    57  30  35 S33G44    29.78F
$$

IAZ047>049-059>061-072>074-084-161800-
   CENTRAL IOWA

CITY           SKY/WX    TMP DP  RH WIND       PRES   REMARKS
AMES           PTSUNNY   57  30  35 S25G36    29.82F
ANKENY *       MOSUNNY   61  30  31 S31G38    29.84F
CHARITON *     MOSUNNY   57  34  41 S30G40    29.89F
DES MOINES     CLOUDY    61  29  29 S30G38    29.86F
GRINNELL*      MOSUNNY   56  31  39 S32G39    29.92F
KNOXVILLE *    MOSUNNY   57  28  33 S21G35    29.90S
MARSHALLTOWN   PTSUNNY   55  32  41 S28G38    29.88F
NEWTON *       MOSUNNY   59  30  33 S32G44    29.89F
PELLA *        SUNNY     58  31  35 S28G39    29.92F
PERRY *          N/A     56  30  36 S32G39    29.78F
$$

IAZ004>006-015-016-023>025-035-036-161800-
   NORTH CENTRAL IOWA

CITY           SKY/WX    TMP DP  RH WIND       PRES   REMARKS
ALGONA *       CLOUDY    52  32  46 S29G38    29.76F
CLARION *      CLOUDY    54  32  43 S30G39    29.79S
ESTHERVILLE    CLOUDY    50  31  48 S30G37    29.73S
FORT DODGE *   CLOUDY    52  32  46 S21G29    29.81R
MASON CITY     CLOUDY    48  32  53 S22G33    29.82F
FOREST CITY *    N/A     48  34  57 S16       29.81S
IOWA FALLS *     N/A     56  33  40 S25G39    29.85F
$$

IAZ007>011-017>019-026>030-037>042-050>054-066-161800-
   NORTHEAST IOWA

CITY           SKY/WX    TMP DP  RH WIND       PRES   REMARKS
CEDAR RAPIDS   SUNNY     51  30  44 SE26G36   29.98F
CHARLES CITY * CLOUDY    50  32  50 S28G35    29.88F
CLINTON *      PTSUNNY   48  27  43 S26G33    30.15F
DECORAH *      CLOUDY    46  30  53 S18G28    29.94F
DUBUQUE        MOSUNNY   47  28  47 S28G39    30.05F
MONTICELLO *   SUNNY     50  32  50 SE26G38   30.03F
OELWEIN *      PTSUNNY  N/A N/A N/A SE30      29.95F
WATERLOO       CLOUDY    51  31  46 SE21G31   29.92F
$$

IAZ064-065-067-068-078-161800-
   EAST CENTRAL IOWA

CITY           SKY/WX    TMP DP  RH WIND       PRES   REMARKS
DAVENPORT      MOSUNNY   50  30  46 S25G36    30.10F
IOWA CITY      SUNNY     53  32  44 S23G35    30.04F
MT. PLEASANT * SUNNY     54  31  41 SE26G32   30.06F
MUSCATINE *    SUNNY     52  30  43 S28G37    30.06F
QUAD CITIES    MOSUNNY   53  27  36 SE24G30   30.12F
$$

IAZ062-063-075>077-085>089-095>099-161800-
   SOUTHEAST IOWA

CITY           SKY/WX    TMP DP  RH WIND       PRES   REMARKS
BURLINGTON     MOSUNNY   54  31  41 S22G30    30.09F
FAIRFIELD *    SUNNY     55  30  38 S23G35    30.01F
FORT MADISON * MOSUNNY   54  30  40 S22G31    30.09F
KEOKUK *       MOSUNNY   54  28  37 S18G26    30.08F
OSKALOOSA *      N/A     56  32  40 S28G33    29.97F
CENTERVILLE *    N/A     57  30  35 SE28G36   29.96F
OTTUMWA        SUNNY     56  31  38 S25G36    29.96F
WASHINGTON *   SUNNY     55  32  41 S24G33    30.03F
$$

ABBREVIATIONS USED IN REMARKS
   TC - TEMPERATURES IN CELSIUS
  WCI - WIND CHILL INDEX
   HX - HEAT INDEX
  VSB - VISIBILITY
$$




USA.gov is the U.S. government's official web portal to all federal, state and local government web resources and services.